Location: Noordwijk
(52.2400°N, 4.4500°E)
Time: 21:13:46
(UTC+00:00)

AO-7 - Pass Details

Date: 14 December 2022
Orbit: 1440 x 1459 km, 101.9° (Epoch: 31 January)

Event Time Altitude Azimuth Distance (km) Brightness Sun altitude
Rises 16:18:02 0° 191° (S) 4,523 ? -7.0°
Reaches altitude 10° 16:21:07 10° 200° (SSW) 3,548 ? -7.4°
Maximum altitude 16:28:32 36° 264° (W) 2,143 ? -8.4°
Drops below altitude 10° 16:36:01 10° 329° (NNW) 3,565 ? -9.4°
Sets 16:39:10 0° 338° (NNW) 4,548 ? -9.9°
